Location: Burtsch�tz
(51.0528°N, 12.1764°E)
Time: 14:29:40
(UTC+00:00)

SAR-Lupe-1 - Pass Details

Date: 29 October 2020
Orbit: 480 x 485 km, 98.2° (Epoch: 22 November)

Event Time Altitude Azimuth Distance (km) Brightness Sun altitude
Rises 17:20:38 0° 14° (NNE) 2,558 7.5 -14.7°
Reaches altitude 10° 17:22:42 10° 15° (NNE) 1,674 6.6 -15.0°
Maximum altitude 17:26:18 88° 102° (ESE) 491 4.0 -15.6°
Drops below altitude 10° 17:29:53 10° 195° (SSW) 1,661 7.0 -16.1°
Sets 17:31:56 0° 196° (SSW) 2,537 7.9 -16.4°
